Home > Weather > Peshawar > Past weeks

Flag for Pakistan Weather for the Past 2 Weeks in Peshawar, Pakistan

Now
45 °F

Passing clouds.


Feels Like: 41 °F
Forecast: 34 / 69 °F
Wind: 7 mph from Southwest

Location: Peshawar Airport

Current Time: Feb 7, 2016 at 7:16:28 AM

Latest Report: Feb 7, 2016 at 6:00 AM


Visibility: 2 mi

Pressure: 29.98 "Hg

Humidity: 81%

Dew point: 39 °F

Location of PeshawarLocation

Historic Weather in Peshawar — Graph

°F

Peshawar Temperature Yesterday

Maximum temperature yesterday: 70 °F (at 12:00 PM)
Minimum temperature yesterday: 45 °F (at 7:00 AM)
Average temperature yesterday: 57 °F

High & Low Weather Summary for the Past Weeks

 TemperatureHumidityPressure
High73 °F (Feb 3, 3:00 PM)100% (Jan 23, 5:00 AM)30.21 "Hg (Jan 23, 5:00 AM)
Low37 °F (Jan 24, 5:59 AM)27% (Jan 31, 2:00 PM)29.89 "Hg (Feb 6, 5:00 AM)
Average54 °F65%30.05 "Hg
* Reported Jan 23 5:00 AM — Feb 7 5:00 AM, Peshawar, Weather by CustomWeather, © 2016

Note: Actual official high and low records may vary slightly from our data, if they occured in-between our weather recording intervals... More about our weather records

Advertising

Peshawar Weather History for the Previous 24 Hours

 ConditionsComfort  
Time TempWeatherWind HumidityBarometerVisibility
5:00 AM
Sun, Feb 7
46 °FPassing clouds.No wind71%29.95 "Hg2 mi
3:00 AM46 °FPassing clouds.5 mph71%29.95 "Hg2 mi
2:00 AM46 °FPassing clouds.5 mph71%29.98 "Hg2 mi
1:00 AM50 °FPassing clouds.5 mph67%29.98 "Hg2 mi
12:00 AM52 °FPassing clouds.No wind62%29.98 "Hg2 mi
11:00 PM
Sat, Feb 6
52 °FPassing clouds.No wind62%29.98 "Hg2 mi
10:00 PM54 °FPassing clouds.5 mph63%29.95 "Hg1 mi
9:00 PM55 °FPassing clouds.5 mph55%29.95 "Hg1 mi
8:00 PM59 °FPassing clouds.5 mph55%29.92 "Hg1 mi
7:00 PM61 °FPartly cloudy.5 mph52%29.92 "Hg1 mi
6:00 PM64 °FPartly cloudy.5 mph46%29.92 "Hg1 mi
5:00 PM66 °FBroken clouds.7 mph43%29.92 "Hg2 mi
4:00 PM68 °FPartly sunny.5 mph40%29.89 "Hg2 mi
3:00 PM68 °FScattered clouds.5 mph40%29.89 "Hg2 mi
2:00 PM70 °FBroken clouds.7 mph38%29.89 "Hg2 mi
1:00 PM70 °FPartly sunny.12 mph38%29.92 "Hg2 mi
12:00 PM70 °FScattered clouds.7 mph38%29.92 "Hg2 mi
11:00 AM63 °FScattered clouds.7 mph42%29.95 "Hg2 mi
10:00 AM55 °FScattered clouds.7 mph44%29.95 "Hg2 mi
9:00 AM50 °FScattered clouds.7 mph58%29.92 "Hg1 mi
8:00 AM46 °FScattered clouds.7 mph66%29.92 "Hg1 mi
7:00 AM45 °FPassing clouds.No wind71%29.92 "Hg2 mi
Weather by CustomWeather, © 2016

See weather overviewHow to use our weather pages